date,time,SUV Intensity [MED/Hr],UV Index,Daily total [MED],Since Last [MED]
09/06/2023,00:02:44,-0.001,0.0,0.0,0.0
09/06/2023,00:03:45,0.001,0.0,0.0,0.0
09/06/2023,00:04:44,-0.001,0.0,0.0,0.0
09/06/2023,00:05:45,0.000,0.0,0.0,0.0
09/06/2023,00:06:45,0.000,0.0,0.0,0.0
09/06/2023,00:07:44,-0.001,0.0,0.0,0.0
09/06/2023,00:08:44,-0.000,0.0,0.0,0.0
09/06/2023,00:09:45,0.000,0.0,0.0,0.0
09/06/2023,00:10:45,-0.000,0.0,0.0,0.0
09/06/2023,00:11:45,-0.000,0.0,0.0,0.0
09/06/2023,00:12:45,0.000,0.0,0.0,0.0
09/06/2023,00:13:45,0.001,0.0,0.0,0.0
09/06/2023,00:14:45,-0.001,0.0,0.0,0.0
09/06/2023,00:15:46,0.001,0.0,0.0,0.0
09/06/2023,00:16:45,0.000,0.0,0.0,0.0
09/06/2023,00:17:45,-0.000,0.0,0.0,0.0
09/06/2023,00:18:45,0.000,0.0,0.0,0.0
09/06/2023,00:19:45,0.000,0.0,0.0,0.0
09/06/2023,00:20:45,0.000,0.0,0.0,0.0
09/06/2023,00:21:45,0.001,0.0,0.0,0.0
09/06/2023,00:22:45,0.001,0.0,0.0,0.0
09/06/2023,00:23:45,0.001,0.0,0.0,0.0
09/06/2023,00:24:45,-0.001,0.0,0.0,0.0
09/06/2023,00:25:45,0.001,0.0,0.0,0.0
09/06/2023,00:26:44,-0.000,0.0,0.0,0.0
09/06/2023,00:27:45,0.000,0.0,0.0,0.0
09/06/2023,00:28:45,-0.000,0.0,0.0,0.0
09/06/2023,00:29:45,0.000,0.0,0.0,0.0
09/06/2023,00:30:45,0.001,0.0,0.0,0.0
09/06/2023,00:31:45,0.000,0.0,0.0,0.0
09/06/2023,00:32:45,0.000,0.0,0.0,0.0
09/06/2023,00:33:45,0.000,0.0,0.0,0.0
09/06/2023,00:34:45,0.001,0.0,0.0,0.0
09/06/2023,00:35:45,0.001,0.0,0.0,0.0
09/06/2023,00:36:45,-0.001,0.0,0.0,0.0
09/06/2023,00:37:45,0.001,0.0,0.0,0.0
09/06/2023,00:38:45,0.000,0.0,0.0,0.0
09/06/2023,00:39:45,0.000,0.0,0.0,0.0
09/06/2023,00:40:45,0.000,0.0,0.0,0.0
09/06/2023,00:41:44,0.000,0.0,0.0,0.0
09/06/2023,00:42:45,0.001,0.0,0.0,0.0
09/06/2023,00:43:45,0.000,0.0,0.0,0.0
09/06/2023,00:44:45,0.000,0.0,0.0,0.0
09/06/2023,00:45:44,0.000,0.0,0.0,0.0
09/06/2023,00:46:45,0.001,0.0,0.0,0.0
09/06/2023,00:47:45,0.001,0.0,0.0,0.0
09/06/2023,00:48:45,0.002,0.0,0.0,0.0
09/06/2023,00:49:45,0.001,0.0,0.0,0.0
09/06/2023,00:50:45,0.001,0.0,0.0,0.0
09/06/2023,00:51:45,0.000,0.0,0.0,0.0
09/06/2023,00:52:45,0.000,0.0,0.0,0.0
09/06/2023,00:53:45,0.000,0.0,0.0,0.0
09/06/2023,00:54:45,0.000,0.0,0.0,0.0
09/06/2023,00:55:45,0.000,0.0,0.0,0.0
09/06/2023,00:56:46,-0.000,0.0,0.0,0.0
09/06/2023,00:57:45,0.000,0.0,0.0,0.0
09/06/2023,00:58:45,0.000,0.0,0.0,0.0
09/06/2023,00:59:45,0.001,0.0,0.0,0.0
09/06/2023,01:00:45,0.001,0.0,0.0,0.0
09/06/2023,01:01:45,0.001,0.0,0.0,0.0
09/06/2023,01:02:49,0.001,0.0,0.0,0.0
09/06/2023,01:03:45,0.000,0.0,0.0,0.0
09/06/2023,01:04:45,0.000,0.0,0.0,0.0
09/06/2023,01:05:45,0.000,0.0,0.0,0.0
09/06/2023,01:06:45,0.000,0.0,0.0,0.0
09/06/2023,01:07:45,0.001,0.0,0.0,0.0
09/06/2023,01:08:45,0.001,0.0,0.0,0.0
09/06/2023,01:09:45,0.000,0.0,0.0,0.0
09/06/2023,01:10:45,0.000,0.0,0.0,0.0
09/06/2023,01:11:45,0.001,0.0,0.0,0.0
09/06/2023,01:12:45,0.000,0.0,0.0,0.0
09/06/2023,01:13:44,0.000,0.0,0.0,0.0
09/06/2023,01:14:45,0.000,0.0,0.0,0.0
09/06/2023,01:15:45,0.000,0.0,0.0,0.0
09/06/2023,01:16:46,0.000,0.0,0.0,0.0
09/06/2023,01:17:45,0.000,0.0,0.0,0.0
09/06/2023,01:18:45,0.000,0.0,0.0,0.0
09/06/2023,01:19:45,0.001,0.0,0.0,0.0
09/06/2023,01:20:45,0.001,0.0,0.0,0.0
09/06/2023,01:21:45,0.000,0.0,0.0,0.0
09/06/2023,01:22:45,0.000,0.0,0.0,0.0
09/06/2023,01:23:45,0.000,0.0,0.0,0.0
09/06/2023,01:24:45,0.001,0.0,0.0,0.0
09/06/2023,01:25:45,0.000,0.0,0.0,0.0
09/06/2023,01:26:45,0.001,0.0,0.0,0.0
09/06/2023,01:27:45,-0.000,0.0,0.0,0.0
09/06/2023,01:28:45,0.000,0.0,0.0,0.0
09/06/2023,01:29:45,0.000,0.0,0.0,0.0
09/06/2023,01:30:45,0.000,0.0,0.0,0.0
09/06/2023,01:31:45,-0.001,0.0,0.0,0.0
09/06/2023,01:32:45,0.000,0.0,0.0,0.0
09/06/2023,01:33:45,0.000,0.0,0.0,0.0
09/06/2023,01:34:45,0.002,0.0,0.0,0.0
09/06/2023,01:35:45,0.001,0.0,0.0,0.0
09/06/2023,01:36:45,0.001,0.0,0.0,0.0
09/06/2023,01:37:45,0.001,0.0,0.0,0.0
09/06/2023,01:38:45,0.001,0.0,0.0,0.0
09/06/2023,01:39:45,0.001,0.0,0.0,0.0
09/06/2023,01:40:45,0.000,0.0,0.0,0.0
09/06/2023,01:41:45,-0.001,0.0,0.0,0.0
09/06/2023,01:42:45,0.001,0.0,0.0,0.0
09/06/2023,01:43:45,0.000,0.0,0.0,0.0
09/06/2023,01:44:45,0.000,0.0,0.0,0.0
09/06/2023,01:45:45,-0.001,0.0,0.0,0.0
09/06/2023,01:46:45,0.000,0.0,0.0,0.0
09/06/2023,01:47:45,0.000,0.0,0.0,0.0
09/06/2023,01:48:45,0.000,0.0,0.0,0.0
09/06/2023,01:49:45,-0.001,0.0,0.0,0.0
09/06/2023,01:50:46,0.000,0.0,0.0,0.0
09/06/2023,01:51:45,-0.000,0.0,0.0,0.0
09/06/2023,01:52:45,-0.000,0.0,0.0,0.0
09/06/2023,01:53:45,-0.000,0.0,0.0,0.0
09/06/2023,01:54:44,0.000,0.0,0.0,0.0
09/06/2023,01:55:45,0.000,0.0,0.0,0.0
09/06/2023,01:56:45,-0.001,0.0,0.0,0.0
09/06/2023,01:57:45,0.000,0.0,0.0,0.0
09/06/2023,01:58:47,-0.000,0.0,0.0,0.0
09/06/2023,01:59:45,0.000,0.0,0.0,0.0
09/06/2023,02:00:45,-0.000,0.0,0.0,0.0
09/06/2023,02:01:45,0.001,0.0,0.0,0.0
09/06/2023,02:02:45,0.000,0.0,0.0,0.0
09/06/2023,02:03:45,-0.000,0.0,0.0,0.0
09/06/2023,02:04:45,0.000,0.0,0.0,0.0
09/06/2023,02:05:45,0.000,0.0,0.0,0.0
09/06/2023,02:06:45,-0.001,0.0,0.0,0.0
09/06/2023,02:07:45,0.000,0.0,0.0,0.0
09/06/2023,02:08:45,0.000,0.0,0.0,0.0
09/06/2023,02:09:45,0.000,0.0,0.0,0.0
09/06/2023,02:10:45,0.001,0.0,0.0,0.0
09/06/2023,02:11:45,0.001,0.0,0.0,0.0
09/06/2023,02:12:45,0.001,0.0,0.0,0.0
09/06/2023,02:13:45,0.000,0.0,0.0,0.0
09/06/2023,02:14:45,0.000,0.0,0.0,0.0
09/06/2023,02:15:46,0.001,0.0,0.0,0.0
09/06/2023,02:16:45,0.002,0.0,0.0,0.0
09/06/2023,02:17:46,0.000,0.0,0.0,0.0
09/06/2023,02:18:45,0.000,0.0,0.0,0.0
09/06/2023,02:19:46,-0.000,0.0,0.0,0.0
09/06/2023,02:20:45,0.000,0.0,0.0,0.0
09/06/2023,02:21:45,0.000,0.0,0.0,0.0
09/06/2023,02:22:45,0.000,0.0,0.0,0.0
09/06/2023,02:23:45,0.000,0.0,0.0,0.0
09/06/2023,02:24:43,0.000,0.0,0.0,0.0
09/06/2023,02:25:45,0.000,0.0,0.0,0.0
09/06/2023,02:26:45,-0.000,0.0,0.0,0.0
09/06/2023,02:27:45,0.000,0.0,0.0,0.0
09/06/2023,02:28:45,0.001,0.0,0.0,0.0
09/06/2023,02:29:45,-0.000,0.0,0.0,0.0
09/06/2023,02:30:45,0.000,0.0,0.0,0.0
09/06/2023,02:31:45,0.000,0.0,0.0,0.0
09/06/2023,02:32:45,0.000,0.0,0.0,0.0
09/06/2023,02:33:45,0.001,0.0,0.0,0.0
09/06/2023,02:34:45,0.001,0.0,0.0,0.0
09/06/2023,02:35:45,0.000,0.0,0.0,0.0
09/06/2023,02:36:45,0.000,0.0,0.0,0.0
09/06/2023,02:37:46,0.001,0.0,0.0,0.0
09/06/2023,02:38:45,0.000,0.0,0.0,0.0
09/06/2023,02:39:45,0.000,0.0,0.0,0.0
09/06/2023,02:40:45,0.001,0.0,0.0,0.0
09/06/2023,02:41:45,0.000,0.0,0.0,0.0
09/06/2023,02:42:45,0.000,0.0,0.0,0.0
09/06/2023,02:43:45,0.000,0.0,0.0,0.0
09/06/2023,02:44:45,0.000,0.0,0.0,0.0
09/06/2023,02:45:45,0.000,0.0,0.0,0.0
09/06/2023,02:46:45,0.000,0.0,0.0,0.0
09/06/2023,02:47:45,0.000,0.0,0.0,0.0
09/06/2023,02:48:45,0.000,0.0,0.0,0.0
09/06/2023,02:49:45,0.000,0.0,0.0,0.0
09/06/2023,02:50:45,0.000,0.0,0.0,0.0
09/06/2023,02:51:45,0.000,0.0,0.0,0.0
09/06/2023,02:52:45,0.000,0.0,0.0,0.0
09/06/2023,02:53:45,0.001,0.0,0.0,0.0
09/06/2023,02:54:45,0.000,0.0,0.0,0.0
09/06/2023,02:55:45,0.000,0.0,0.0,0.0
09/06/2023,02:56:45,0.000,0.0,0.0,0.0
09/06/2023,02:57:45,-0.001,0.0,0.0,0.0
09/06/2023,02:58:45,0.000,0.0,0.0,0.0
09/06/2023,02:59:45,0.000,0.0,0.0,0.0
09/06/2023,03:00:45,0.000,0.0,0.0,0.0
09/06/2023,03:01:45,0.000,0.0,0.0,0.0
09/06/2023,03:02:45,0.001,0.0,0.0,0.0
09/06/2023,03:03:46,0.000,0.0,0.0,0.0
09/06/2023,03:04:45,-0.001,0.0,0.0,0.0
09/06/2023,03:05:45,0.000,0.0,0.0,0.0
09/06/2023,03:06:45,0.000,0.0,0.0,0.0
09/06/2023,03:07:46,-0.001,0.0,0.0,0.0
09/06/2023,03:08:46,0.000,0.0,0.0,0.0
09/06/2023,03:09:45,-0.000,0.0,0.0,0.0
09/06/2023,03:10:45,0.000,0.0,0.0,0.0
09/06/2023,03:11:45,0.001,0.0,0.0,0.0
09/06/2023,03:12:45,0.000,0.0,0.0,0.0
09/06/2023,03:13:46,0.000,0.0,0.0,0.0
09/06/2023,03:14:45,0.000,0.0,0.0,0.0
09/06/2023,03:15:45,0.000,0.0,0.0,0.0
09/06/2023,03:16:45,-0.001,0.0,0.0,0.0
09/06/2023,03:17:47,0.000,0.0,0.0,0.0
09/06/2023,03:18:46,-0.001,0.0,0.0,0.0
09/06/2023,03:19:45,0.000,0.0,0.0,0.0
09/06/2023,03:20:45,0.000,0.0,0.0,0.0
09/06/2023,03:21:45,0.001,0.0,0.0,0.0
09/06/2023,03:22:45,0.000,0.0,0.0,0.0
09/06/2023,03:23:46,-0.001,0.0,0.0,0.0
09/06/2023,03:24:45,0.000,0.0,0.0,0.0
09/06/2023,03:25:45,0.000,0.0,0.0,0.0
09/06/2023,03:26:45,0.001,0.0,0.0,0.0
09/06/2023,03:27:46,0.001,0.0,0.0,0.0
09/06/2023,03:28:45,0.000,0.0,0.0,0.0
09/06/2023,03:29:45,0.000,0.0,0.0,0.0
09/06/2023,03:30:45,0.001,0.0,0.0,0.0
09/06/2023,03:31:45,0.001,0.0,0.0,0.0
09/06/2023,03:32:45,0.002,0.0,0.0,0.0
09/06/2023,03:33:45,0.002,0.0,0.0,0.0
09/06/2023,03:34:46,0.001,0.0,0.0,0.0
09/06/2023,03:35:46,0.001,0.0,0.0,0.0
09/06/2023,03:36:45,0.000,0.0,0.0,0.0
09/06/2023,03:37:45,0.001,0.0,0.0,0.0
09/06/2023,03:38:45,0.001,0.0,0.0,0.0
09/06/2023,03:39:45,0.001,0.0,0.0,0.0
09/06/2023,03:40:45,0.002,0.0,0.0,0.0
09/06/2023,03:41:46,0.001,0.0,0.0,0.0
09/06/2023,03:42:45,0.002,0.0,0.0,0.0
09/06/2023,03:43:45,0.002,0.0,0.0,0.0
09/06/2023,03:44:46,0.001,0.0,0.0,0.0
09/06/2023,03:45:44,0.001,0.0,0.0,0.0
09/06/2023,03:46:46,0.000,0.0,0.0,0.0
09/06/2023,03:47:45,0.001,0.0,0.0,0.0
09/06/2023,03:48:45,0.000,0.0,0.0,0.0
09/06/2023,03:49:47,0.001,0.0,0.0,0.0
09/06/2023,03:50:46,0.002,0.0,0.0,0.0
09/06/2023,03:51:45,0.002,0.0,0.0,0.0
09/06/2023,03:52:45,0.002,0.0,0.0,0.0
09/06/2023,03:53:45,0.002,0.0,0.0,0.0
09/06/2023,03:54:46,0.002,0.0,0.0,0.0
09/06/2023,03:55:45,0.001,0.0,0.0,0.0
09/06/2023,03:56:45,0.002,0.0,0.0,0.0
09/06/2023,03:57:45,0.002,0.0,0.0,0.0
09/06/2023,03:58:45,0.002,0.0,0.0,0.0
09/06/2023,03:59:46,0.002,0.0,0.0,0.0
09/06/2023,04:00:45,0.002,0.0,0.0,0.0
09/06/2023,04:01:45,0.002,0.0,0.0,0.0
09/06/2023,04:02:43,0.003,0.0,0.0,0.0
09/06/2023,04:03:45,0.003,0.0,0.0,0.0
09/06/2023,04:04:45,0.003,0.0,0.0,0.0
09/06/2023,04:05:45,0.003,0.0,0.0,0.0
09/06/2023,04:06:45,0.003,0.0,0.0,0.0
09/06/2023,04:07:47,0.003,0.0,0.0,0.0
09/06/2023,04:08:46,0.003,0.0,0.0,0.0
09/06/2023,04:09:45,0.004,0.0,0.0,0.0
09/06/2023,04:10:45,0.004,0.0,0.0,0.0
09/06/2023,04:11:45,0.004,0.0,0.0,0.0
09/06/2023,04:12:46,0.004,0.0,0.0,0.0
09/06/2023,04:13:45,0.005,0.0,0.0,0.0
09/06/2023,04:14:45,0.005,0.0,0.0,0.0
09/06/2023,04:15:46,0.004,0.0,0.0,0.0
09/06/2023,04:16:45,0.006,0.0,0.0,0.0
09/06/2023,04:17:45,0.005,0.0,0.0,0.0
09/06/2023,04:18:45,0.005,0.0,0.0,0.0
09/06/2023,04:19:45,0.005,0.0,0.0,0.0
09/06/2023,04:20:45,0.005,0.0,0.0,0.0
09/06/2023,04:21:46,0.006,0.0,0.0,0.0
09/06/2023,04:22:46,0.006,0.0,0.0,0.0
09/06/2023,04:23:45,0.006,0.0,0.0,0.0
09/06/2023,04:24:45,0.007,0.0,0.0,0.0
09/06/2023,04:25:45,0.009,0.0,0.0,0.0
09/06/2023,04:26:45,0.007,0.0,0.001,0.001
09/06/2023,04:27:46,0.009,0.0,0.001,0.0
09/06/2023,04:28:45,0.008,0.0,0.001,0.0
09/06/2023,04:29:45,0.008,0.0,0.001,0.0
09/06/2023,04:30:45,0.009,0.0,0.001,0.0
09/06/2023,04:31:45,0.010,0.0,0.001,0.0
09/06/2023,04:32:46,0.010,0.0,0.001,0.0
09/06/2023,04:33:46,0.011,0.0,0.002,0.001
09/06/2023,04:34:45,0.012,0.0,0.002,0.0
09/06/2023,04:35:45,0.011,0.0,0.002,0.0
09/06/2023,04:36:45,0.012,0.0,0.002,0.0
09/06/2023,04:37:45,0.012,0.0,0.002,0.0
09/06/2023,04:38:46,0.015,0.0,0.003,0.001
09/06/2023,04:39:45,0.014,0.0,0.003,0.0
09/06/2023,04:40:45,0.015,0.0,0.003,0.0
09/06/2023,04:41:46,0.016,0.0,0.003,0.0
09/06/2023,04:42:46,0.015,0.0,0.004,0.001
09/06/2023,04:43:46,0.016,0.0,0.004,0.0
09/06/2023,04:44:45,0.017,0.0,0.004,0.0
09/06/2023,04:45:45,0.016,0.0,0.004,0.0
09/06/2023,04:46:45,0.017,0.0,0.005,0.001
09/06/2023,04:47:45,0.019,0.0,0.005,0.0
09/06/2023,04:48:45,0.019,0.0,0.005,0.0
09/06/2023,04:49:46,0.019,0.0,0.006,0.001
09/06/2023,04:50:45,0.020,0.0,0.006,0.0
09/06/2023,04:51:46,0.021,0.0,0.006,0.0
09/06/2023,04:52:46,0.022,0.0,0.007,0.001
09/06/2023,04:53:46,0.022,0.0,0.007,0.0
09/06/2023,04:54:44,0.023,0.0,0.007,0.0
09/06/2023,04:55:46,0.024,0.0,0.008,0.001
09/06/2023,04:56:45,0.025,0.0,0.008,0.0
09/06/2023,04:57:45,0.025,0.0,0.009,0.001
09/06/2023,04:58:46,0.026,0.0,0.009,0.0
09/06/2023,04:59:46,0.027,0.0,0.009,0.0
09/06/2023,05:00:46,0.028,0.0,0.01,0.001
09/06/2023,05:01:45,0.031,0.0,0.01,0.0
09/06/2023,05:02:46,0.030,0.0,0.011,0.001
09/06/2023,05:03:45,0.030,0.0,0.011,0.0
09/06/2023,05:04:46,0.031,0.0,0.012,0.001
09/06/2023,05:05:45,0.032,0.0,0.012,0.0
09/06/2023,05:06:45,0.033,0.0,0.013,0.001
09/06/2023,05:07:46,0.033,0.0,0.013,0.0
09/06/2023,05:08:46,0.035,0.0,0.014,0.001
09/06/2023,05:09:46,0.037,0.0,0.015,0.001
09/06/2023,05:10:45,0.037,0.0,0.015,0.0
09/06/2023,05:11:46,0.038,0.0,0.016,0.001
09/06/2023,05:12:45,0.038,0.0,0.017,0.001
09/06/2023,05:13:45,0.039,0.0,0.017,0.0
09/06/2023,05:14:46,0.041,0.0,0.018,0.001
09/06/2023,05:15:45,0.043,0.0,0.019,0.001
09/06/2023,05:16:45,0.043,0.0,0.019,0.0
09/06/2023,05:17:45,0.042,0.0,0.02,0.001
09/06/2023,05:18:45,0.041,0.0,0.021,0.001
09/06/2023,05:19:45,0.043,0.0,0.021,0.0
09/06/2023,05:20:46,0.045,0.0,0.022,0.001
09/06/2023,05:21:45,0.047,0.0,0.023,0.001
09/06/2023,05:22:45,0.045,0.0,0.024,0.001
09/06/2023,05:23:46,0.044,0.0,0.024,0.0
09/06/2023,05:24:45,0.047,0.0,0.025,0.001
09/06/2023,05:25:45,0.049,0.0,0.026,0.001
09/06/2023,05:26:46,0.049,0.0,0.027,0.001
09/06/2023,05:27:45,0.052,0.0,0.028,0.001
09/06/2023,05:28:45,0.055,0.0,0.029,0.001
09/06/2023,05:29:45,0.055,0.0,0.029,0.0
09/06/2023,05:30:46,0.056,0.0,0.03,0.001
09/06/2023,05:31:46,0.057,0.0,0.031,0.001
09/06/2023,05:32:45,0.060,0.0,0.032,0.001
09/06/2023,05:33:46,0.063,0.0,0.033,0.001
09/06/2023,05:34:45,0.063,0.0,0.034,0.001
09/06/2023,05:35:46,0.065,0.0,0.035,0.001
09/06/2023,05:36:46,0.066,0.0,0.036,0.001
09/06/2023,05:37:45,0.068,0.0,0.038,0.002
09/06/2023,05:38:45,0.069,0.0,0.039,0.001
09/06/2023,05:39:46,0.071,0.0,0.04,0.001
09/06/2023,05:40:46,0.072,0.0,0.041,0.001
09/06/2023,05:41:46,0.074,0.0,0.042,0.001
09/06/2023,05:42:45,0.076,0.0,0.044,0.002
09/06/2023,05:43:45,0.078,0.0,0.045,0.001
09/06/2023,05:44:46,0.082,0.0,0.046,0.001
09/06/2023,05:45:45,0.084,0.0,0.048,0.002
09/06/2023,05:46:45,0.085,0.0,0.049,0.001
09/06/2023,05:47:45,0.085,0.0,0.05,0.001
09/06/2023,05:48:46,0.089,0.0,0.052,0.002
09/06/2023,05:49:46,0.093,0.0,0.053,0.001
09/06/2023,05:50:46,0.096,0.0,0.055,0.002
09/06/2023,05:51:46,0.098,0.0,0.057,0.002
09/06/2023,05:52:46,0.100,0.0,0.058,0.001
09/06/2023,05:53:46,0.102,0.0,0.06,0.002
09/06/2023,05:54:45,0.103,0.0,0.062,0.002
09/06/2023,05:55:46,0.105,0.0,0.063,0.001
09/06/2023,05:56:45,0.108,0.0,0.065,0.002
09/06/2023,05:57:45,0.109,0.0,0.067,0.002
09/06/2023,05:58:45,0.112,0.0,0.069,0.002
09/06/2023,05:59:45,0.112,0.0,0.071,0.002
09/06/2023,06:00:45,0.114,0.0,0.073,0.002
09/06/2023,06:01:46,0.115,0.0,0.074,0.001
09/06/2023,06:02:46,0.114,0.0,0.076,0.002
09/06/2023,06:03:45,0.115,0.0,0.078,0.002
09/06/2023,06:04:46,0.119,0.0,0.08,0.002
09/06/2023,06:05:45,0.122,0.0,0.082,0.002
09/06/2023,06:06:45,0.125,0.0,0.084,0.002
09/06/2023,06:07:46,0.127,0.0,0.086,0.002
09/06/2023,06:08:45,0.131,0.0,0.088,0.002
09/06/2023,06:09:46,0.135,0.0,0.091,0.003
09/06/2023,06:10:45,0.138,0.0,0.093,0.002
09/06/2023,06:11:46,0.140,0.0,0.095,0.002
09/06/2023,06:12:45,0.142,0.0,0.098,0.003
09/06/2023,06:13:45,0.146,0.0,0.1,0.002
09/06/2023,06:14:45,0.151,0.0,0.103,0.003
09/06/2023,06:15:46,0.154,0.0,0.105,0.002
09/06/2023,06:16:45,0.157,0.0,0.108,0.003
09/06/2023,06:17:46,0.161,0.0,0.11,0.002
09/06/2023,06:18:46,0.164,0.0,0.113,0.003
09/06/2023,06:19:45,0.168,0.0,0.116,0.003
09/06/2023,06:20:46,0.171,0.0,0.119,0.003
09/06/2023,06:21:46,0.178,0.0,0.122,0.003
09/06/2023,06:22:45,0.181,0.0,0.125,0.003
09/06/2023,06:23:45,0.184,0.0,0.127,0.002
09/06/2023,06:24:46,0.188,0.0,0.131,0.004
09/06/2023,06:25:46,0.185,0.0,0.134,0.003
09/06/2023,06:26:45,0.190,0.0,0.137,0.003
09/06/2023,06:27:46,0.188,0.0,0.14,0.003
09/06/2023,06:28:45,0.189,0.0,0.143,0.003
09/06/2023,06:29:45,0.192,0.0,0.146,0.003
09/06/2023,06:30:45,0.190,0.0,0.149,0.003
09/06/2023,06:31:46,0.195,0.0,0.153,0.004
09/06/2023,06:32:46,0.199,0.0,0.156,0.003
09/06/2023,06:33:45,0.200,0.0,0.159,0.003
09/06/2023,06:34:45,0.206,0.0,0.163,0.004
09/06/2023,06:35:45,0.217,0.0,0.166,0.003
09/06/2023,06:36:46,0.222,1.0,0.17,0.004
09/06/2023,06:37:46,0.222,1.0,0.174,0.004
09/06/2023,06:38:45,0.230,1.0,0.177,0.003
09/06/2023,06:39:46,0.234,1.0,0.181,0.004
09/06/2023,06:40:45,0.235,1.0,0.185,0.004
09/06/2023,06:41:46,0.239,1.0,0.189,0.004
09/06/2023,06:42:45,0.237,1.0,0.193,0.004
09/06/2023,06:43:46,0.241,1.0,0.197,0.004
09/06/2023,06:44:46,0.259,1.0,0.201,0.004
09/06/2023,06:45:46,0.259,1.0,0.205,0.004
09/06/2023,06:46:45,0.254,1.0,0.21,0.005
09/06/2023,06:47:45,0.271,1.0,0.214,0.004
09/06/2023,06:48:46,0.277,1.0,0.219,0.005
09/06/2023,06:49:46,0.270,1.0,0.223,0.004
09/06/2023,06:50:45,0.287,1.0,0.228,0.005
09/06/2023,06:51:46,0.273,1.0,0.232,0.004
09/06/2023,06:52:46,0.278,1.0,0.237,0.005
09/06/2023,06:53:45,0.277,1.0,0.242,0.005
09/06/2023,06:54:45,0.278,1.0,0.246,0.004
09/06/2023,06:55:45,0.294,1.0,0.251,0.005
09/06/2023,06:56:46,0.310,1.0,0.256,0.005
09/06/2023,06:57:45,0.292,1.0,0.261,0.005
09/06/2023,06:58:46,0.311,1.0,0.266,0.005
09/06/2023,06:59:45,0.302,1.0,0.271,0.005
09/06/2023,07:00:46,0.298,1.0,0.276,0.005
09/06/2023,07:01:45,0.307,1.0,0.281,0.005
09/06/2023,07:02:46,0.310,1.0,0.286,0.005
09/06/2023,07:03:46,0.343,1.0,0.292,0.006
09/06/2023,07:04:45,0.328,1.0,0.297,0.005
09/06/2023,07:05:46,0.321,1.0,0.303,0.006
09/06/2023,07:06:46,0.330,1.0,0.308,0.005
09/06/2023,07:07:46,0.353,1.0,0.314,0.006
09/06/2023,07:08:45,0.358,1.0,0.32,0.006
09/06/2023,07:09:46,0.344,1.0,0.326,0.006
09/06/2023,07:10:46,0.376,1.0,0.332,0.006
09/06/2023,07:11:45,0.345,1.0,0.338,0.006
09/06/2023,07:12:45,0.344,1.0,0.344,0.006
09/06/2023,07:13:45,0.384,1.0,0.35,0.006
09/06/2023,07:14:45,0.398,1.0,0.356,0.006
09/06/2023,07:15:46,0.391,1.0,0.363,0.007
09/06/2023,07:16:46,0.374,1.0,0.369,0.006
09/06/2023,07:17:45,0.419,1.0,0.376,0.007
09/06/2023,07:18:46,0.424,1.0,0.383,0.007
09/06/2023,07:19:46,0.420,1.0,0.39,0.007
09/06/2023,07:20:45,0.431,1.0,0.397,0.007
09/06/2023,07:21:46,0.391,1.0,0.404,0.007
09/06/2023,07:22:46,0.442,1.0,0.41,0.006
09/06/2023,07:23:45,0.422,1.0,0.418,0.008
09/06/2023,07:24:46,0.441,1.0,0.425,0.007
09/06/2023,07:25:45,0.420,1.0,0.432,0.007
09/06/2023,07:26:46,0.456,1.0,0.44,0.008
09/06/2023,07:27:46,0.433,1.0,0.447,0.007
09/06/2023,07:28:45,0.444,1.0,0.455,0.008
09/06/2023,07:29:46,0.485,1.0,0.463,0.008
09/06/2023,07:30:45,0.491,1.0,0.471,0.008
09/06/2023,07:31:46,0.496,1.0,0.479,0.008
09/06/2023,07:32:46,0.506,1.0,0.487,0.008
09/06/2023,07:33:45,0.510,1.0,0.496,0.009
09/06/2023,07:34:46,0.501,1.0,0.504,0.008
09/06/2023,07:35:45,0.474,1.0,0.512,0.008
09/06/2023,07:36:46,0.526,1.0,0.521,0.009
09/06/2023,07:37:46,0.540,1.0,0.53,0.009
09/06/2023,07:38:45,0.547,1.0,0.539,0.009
09/06/2023,07:39:46,0.551,1.0,0.548,0.009
09/06/2023,07:40:45,0.558,1.0,0.557,0.009
09/06/2023,07:41:46,0.561,1.0,0.566,0.009
09/06/2023,07:42:46,0.560,1.0,0.576,0.01
09/06/2023,07:43:46,0.580,1.0,0.585,0.009
09/06/2023,07:44:45,0.581,1.0,0.595,0.01
09/06/2023,07:45:46,0.579,1.0,0.605,0.01
09/06/2023,07:46:47,0.517,1.0,0.614,0.009
09/06/2023,07:47:48,0.553,1.0,0.623,0.009
09/06/2023,07:48:48,0.594,1.0,0.633,0.01
09/06/2023,07:49:48,0.559,1.0,0.642,0.009
09/06/2023,07:50:48,0.543,1.0,0.651,0.009
09/06/2023,07:51:46,0.618,1.0,0.66,0.009
09/06/2023,07:52:46,0.596,1.0,0.67,0.01
09/06/2023,07:53:46,0.636,1.0,0.68,0.01
09/06/2023,07:54:45,0.637,1.0,0.69,0.01
09/06/2023,07:55:45,0.649,1.0,0.701,0.011
09/06/2023,07:56:46,0.651,1.0,0.712,0.011
09/06/2023,07:57:47,0.672,2.0,0.723,0.011
09/06/2023,07:58:46,0.676,2.0,0.734,0.011
09/06/2023,07:59:46,0.688,2.0,0.745,0.011
09/06/2023,08:00:46,0.693,2.0,0.757,0.012
09/06/2023,08:01:46,0.616,1.0,0.768,0.011
09/06/2023,08:02:45,0.571,1.0,0.778,0.01
09/06/2023,08:03:45,0.588,1.0,0.788,0.01
09/06/2023,08:04:46,0.583,1.0,0.797,0.009
09/06/2023,08:05:45,0.589,1.0,0.807,0.01
09/06/2023,08:06:47,0.609,1.0,0.818,0.011
09/06/2023,08:07:46,0.660,2.0,0.828,0.01
09/06/2023,08:08:45,0.734,2.0,0.838,0.01
09/06/2023,08:09:45,0.695,2.0,0.85,0.012
09/06/2023,08:10:46,0.690,2.0,0.862,0.012
09/06/2023,08:11:46,0.680,2.0,0.873,0.011
09/06/2023,08:12:46,0.776,2.0,0.885,0.012
09/06/2023,08:13:46,0.794,2.0,0.898,0.013
09/06/2023,08:14:45,0.794,2.0,0.912,0.014
09/06/2023,08:15:46,0.691,2.0,0.924,0.012
09/06/2023,08:16:45,0.797,2.0,0.937,0.013
09/06/2023,08:17:46,0.793,2.0,0.95,0.013
09/06/2023,08:18:45,0.801,2.0,0.963,0.013
09/06/2023,08:19:45,0.729,2.0,0.975,0.012
09/06/2023,08:20:46,0.749,2.0,0.988,0.013
09/06/2023,08:21:46,0.728,2.0,1.0,0.012
09/06/2023,08:22:46,0.835,2.0,1.014,0.014
09/06/2023,08:23:46,0.864,2.0,1.028,0.014
09/06/2023,08:24:45,0.874,2.0,1.042,0.014
09/06/2023,08:25:46,0.819,2.0,1.056,0.014
09/06/2023,08:26:46,0.890,2.0,1.071,0.015
09/06/2023,08:27:46,0.902,2.0,1.086,0.015
09/06/2023,08:28:45,0.904,2.0,1.101,0.015
09/06/2023,08:29:45,0.902,2.0,1.116,0.015
09/06/2023,08:30:45,0.916,2.0,1.131,0.015
09/06/2023,08:31:46,0.926,2.0,1.146,0.015
09/06/2023,08:32:46,0.936,2.0,1.162,0.016
09/06/2023,08:33:46,0.945,2.0,1.177,0.015
09/06/2023,08:34:45,0.955,2.0,1.193,0.016
09/06/2023,08:35:46,0.905,2.0,1.209,0.016
09/06/2023,08:36:46,0.968,2.0,1.225,0.016
09/06/2023,08:37:45,0.954,2.0,1.241,0.016
09/06/2023,08:38:46,0.970,2.0,1.257,0.016
09/06/2023,08:39:45,0.986,2.0,1.273,0.016
09/06/2023,08:40:45,0.993,2.0,1.29,0.017
09/06/2023,08:41:46,0.992,2.0,1.306,0.016
09/06/2023,08:42:46,0.996,2.0,1.322,0.016
09/06/2023,08:43:46,1.008,2.0,1.339,0.017
09/06/2023,08:44:45,1.028,2.0,1.356,0.017
09/06/2023,08:45:46,1.030,2.0,1.373,0.017
09/06/2023,08:46:46,1.042,2.0,1.39,0.017
09/06/2023,08:47:46,1.048,2.0,1.408,0.018
09/06/2023,08:48:45,1.054,2.0,1.425,0.017
09/06/2023,08:49:45,1.061,2.0,1.443,0.018
09/06/2023,08:50:46,1.078,2.0,1.461,0.018
09/06/2023,08:51:46,1.086,2.0,1.479,0.018
09/06/2023,08:52:46,1.098,3.0,1.497,0.018
09/06/2023,08:53:45,1.105,3.0,1.515,0.018
09/06/2023,08:54:46,1.111,3.0,1.534,0.019
09/06/2023,08:55:46,1.121,3.0,1.552,0.018
09/06/2023,08:56:45,1.124,3.0,1.571,0.019
09/06/2023,08:57:46,1.132,3.0,1.59,0.019
09/06/2023,08:58:45,1.140,3.0,1.609,0.019
09/06/2023,08:59:46,1.141,3.0,1.628,0.019
09/06/2023,09:00:46,1.154,3.0,1.647,0.019
09/06/2023,09:01:46,1.168,3.0,1.666,0.019
09/06/2023,09:02:45,1.166,3.0,1.685,0.019
09/06/2023,09:03:45,1.183,3.0,1.705,0.02
09/06/2023,09:04:45,1.192,3.0,1.725,0.02
09/06/2023,09:05:46,1.177,3.0,1.745,0.02
09/06/2023,09:06:46,1.195,3.0,1.765,0.02
09/06/2023,09:07:46,1.194,3.0,1.785,0.02
09/06/2023,09:08:46,1.114,3.0,1.805,0.02
09/06/2023,09:09:45,1.145,3.0,1.825,0.02
09/06/2023,09:10:46,1.227,3.0,1.845,0.02
09/06/2023,09:11:46,1.238,3.0,1.866,0.021
09/06/2023,09:12:45,1.224,3.0,1.886,0.02
09/06/2023,09:13:46,1.251,3.0,1.907,0.021
09/06/2023,09:14:46,1.257,3.0,1.928,0.021
09/06/2023,09:15:45,1.270,3.0,1.949,0.021
09/06/2023,09:16:46,1.283,3.0,1.97,0.021
09/06/2023,09:17:46,1.292,3.0,1.992,0.022
09/06/2023,09:18:46,1.295,3.0,2.013,0.021
09/06/2023,09:19:46,1.309,3.0,2.035,0.022
09/06/2023,09:20:46,1.316,3.0,2.057,0.022
09/06/2023,09:21:46,1.319,3.0,2.079,0.022
09/06/2023,09:22:46,1.331,3.0,2.101,0.022
09/06/2023,09:23:45,1.338,3.0,2.123,0.022
09/06/2023,09:24:46,1.342,3.0,2.146,0.023
09/06/2023,09:25:46,1.351,3.0,2.168,0.022
09/06/2023,09:26:46,1.359,3.0,2.191,0.023
09/06/2023,09:27:46,1.367,3.0,2.213,0.022
09/06/2023,09:28:46,1.375,3.0,2.236,0.023
09/06/2023,09:29:46,1.382,3.0,2.259,0.023
09/06/2023,09:30:46,1.385,3.0,2.282,0.023
09/06/2023,09:31:46,1.392,3.0,2.306,0.024
09/06/2023,09:32:46,1.396,3.0,2.329,0.023
09/06/2023,09:33:46,1.405,3.0,2.352,0.023
09/06/2023,09:34:46,1.410,3.0,2.376,0.024
09/06/2023,09:35:45,1.398,3.0,2.399,0.023
09/06/2023,09:36:46,1.423,3.0,2.423,0.024
09/06/2023,09:37:48,1.423,3.0,2.447,0.024
09/06/2023,09:38:46,1.433,3.0,2.47,0.023
09/06/2023,09:39:46,1.441,3.0,2.494,0.024
09/06/2023,09:40:46,1.447,3.0,2.518,0.024
09/06/2023,09:41:46,1.460,3.0,2.542,0.024
09/06/2023,09:42:46,1.465,3.0,2.566,0.024
09/06/2023,09:43:46,1.469,3.0,2.591,0.025
09/06/2023,09:44:46,1.479,3.0,2.615,0.024
09/06/2023,09:45:46,1.484,3.0,2.64,0.025
09/06/2023,09:46:46,1.495,3.0,2.665,0.025
09/06/2023,09:47:46,1.508,3.0,2.69,0.025
09/06/2023,09:48:46,1.514,3.0,2.715,0.025
09/06/2023,09:49:45,1.518,3.0,2.74,0.025
09/06/2023,09:50:46,1.529,4.0,2.766,0.026
09/06/2023,09:51:45,1.534,4.0,2.791,0.025
09/06/2023,09:52:46,1.541,4.0,2.817,0.026
09/06/2023,09:53:46,1.553,4.0,2.843,0.026
09/06/2023,09:54:46,1.559,4.0,2.869,0.026
09/06/2023,09:55:46,1.565,4.0,2.895,0.026
09/06/2023,09:56:46,1.570,4.0,2.921,0.026
09/06/2023,09:57:46,1.579,4.0,2.947,0.026